When you browse on this site, cookies collect data to enhance your experience and personalize the content and advertising you see.
Visit our Privacy Policy to learn more. By continuing to use the site, you agree to this use of cookies and data.
  • In Hungary
  • List of Countries
  • For 7 days
  • Water Temperature
  • Satellite Maps
  • Weather Map
  • News
  • Weather Widgets
  • user-avatar
    Login

    Hourly Weather Antoniha

    Today, 16 December, Sunday

    Time Temperature Precipitation Wind Pressure Humidity
    00:00 -7°C° 0 mm 1 mps 754 mmHg 96%
    01:00 -7°C° 0 mm 1 mps 754 mmHg 96%
    02:00 -6°C° 0 mm 1 mps 754 mmHg 95%
    03:00 -6°C° 0 mm 1 mps 754 mmHg 95%
    04:00 -6°C° 0 mm 1 mps 754 mmHg 95%
    05:00 -6°C° 0 mm 1 mps 754 mmHg 96%
    06:00 -6°C° 0 mm 1 mps 754 mmHg 96%
    07:00 -6°C° 0 mm 1 mps 754 mmHg 96%
    08:00 -7°C° 0 mm 1 mps 754 mmHg 96%
    09:00 -7°C° 0 mm 1 mps 754 mmHg 95%
    10:00 -7°C° 0 mm 1 mps 754 mmHg 94%
    11:00 -6°C° 0 mm 1 mps 754 mmHg 93%
    12:00 -7°C° 0 mm 1 mps 754 mmHg 93%
    13:00 -7°C° 0 mm 1 mps 754 mmHg 93%
    14:00 -10°C° 0 mm 1 mps 754 mmHg 87%
    15:00 -11°C° 0 mm 1 mps 754 mmHg 87%
    16:00 -11°C° 0 mm 1 mps 753 mmHg 88%
    17:00 -12°C° 0 mm 1 mps 753 mmHg 88%
    18:00 -14°C° 0 mm 2 mps 753 mmHg 87%
    19:00 -14°C° 0 mm 2 mps 753 mmHg 86%
    20:00 -15°C° 0 mm 2 mps 753 mmHg 86%
    21:00 -15°C° 0 mm 2 mps 753 mmHg 86%
    22:00 -15°C° 0 mm 2 mps 753 mmHg 87%
    23:00 -15°C° 0 mm 2 mps 753 mmHg 87%

    Tomorrow, 17 December, Monday

    Time Temperature Precipitation Wind Pressure Humidity
    00:00 -16°C° 0 mm 2 mps 753 mmHg 88%
    01:00 -16°C° 0 mm 2 mps 753 mmHg 89%
    02:00 -16°C° 0 mm 2 mps 753 mmHg 90%
    03:00 -16°C° 0 mm 2 mps 753 mmHg 91%
    04:00 -16°C° 0 mm 2 mps 753 mmHg 91%
    05:00 -16°C° 0 mm 2 mps 752 mmHg 91%
    06:00 -16°C° 0 mm 2 mps 752 mmHg 91%
    07:00 -16°C° 0 mm 2 mps 752 mmHg 90%
    08:00 -16°C° 0 mm 2 mps 752 mmHg 90%
    09:00 -15°C° 0 mm 2 mps 752 mmHg 88%
    10:00 -15°C° 0 mm 2 mps 752 mmHg 86%
    11:00 -14°C° 0 mm 2 mps 752 mmHg 84%
    12:00 -14°C° 0 mm 2 mps 752 mmHg 84%
    13:00 -14°C° 0 mm 2 mps 752 mmHg 85%
    14:00 -14°C° 0 mm 2 mps 752 mmHg 86%
    15:00 -14°C° 0 mm 2 mps 752 mmHg 87%
    16:00 -15°C° 0 mm 2 mps 752 mmHg 88%
    17:00 -16°C° 0 mm 2 mps 752 mmHg 90%
    18:00 -16°C° 0 mm 2 mps 752 mmHg 89%
    19:00 -16°C° 0 mm 2 mps 751 mmHg 89%
    20:00 -16°C° 0 mm 2 mps 751 mmHg 89%
    21:00 -16°C° 0 mm 2 mps 751 mmHg 89%
    22:00 -17°C° 0 mm 2 mps 751 mmHg 90%
    23:00 -17°C° 0 mm 2 mps 751 mmHg 90%

    Day after tomorrow, 18 December, Tuesday

    Time Temperature Precipitation Wind Pressure Humidity
    00:00 -17°C° 0 mm 2 mps 752 mmHg 90%
    01:00 -17°C° 0 mm 2 mps 752 mmHg 91%
    02:00 -17°C° 0 mm 2 mps 752 mmHg 92%
    03:00 -17°C° 0 mm 2 mps 752 mmHg 93%
    04:00 -17°C° 0 mm 2 mps 751 mmHg 94%
    05:00 -17°C° 0 mm 2 mps 751 mmHg 94%
    06:00 -17°C° 0 mm 2 mps 751 mmHg 95%
    07:00 -16°C° 0 mm 2 mps 751 mmHg 95%
    08:00 -16°C° 0 mm 2 mps 751 mmHg 95%
    09:00 -15°C° 0 mm 2 mps 751 mmHg 94%
    10:00 -15°C° 0 mm 2 mps 751 mmHg 93%
    11:00 -15°C° 0 mm 3 mps 751 mmHg 91%
    12:00 -14°C° 0 mm 2 mps 751 mmHg 91%
    13:00 -13°C° 0 mm 2 mps 751 mmHg 91%
    14:00 -13°C° 0 mm 2 mps 751 mmHg 91%
    15:00 -14°C° 0 mm 2 mps 751 mmHg 93%
    16:00 -14°C° 0 mm 2 mps 751 mmHg 94%
    17:00 -15°C° 0 mm 2 mps 751 mmHg 96%
    18:00 -15°C° 0 mm 2 mps 751 mmHg 96%
    19:00 -15°C° 0 mm 2 mps 751 mmHg 96%
    20:00 -15°C° 0 mm 2 mps 751 mmHg 96%
    21:00 -15°C° 0 mm 2 mps 751 mmHg 96%
    22:00 -15°C° 0 mm 2 mps 751 mmHg 96%
    23:00 -15°C° 0 mm 2 mps 751 mmHg 96%

    19 December, Wednesday

    Time Temperature Precipitation Wind Pressure Humidity
    00:00 -15°C° 0 mm 2 mps 751 mmHg 96%
    01:00 -15°C° 0 mm 2 mps 751 mmHg 96%
    02:00 -13°C° 0 mm 1 mps 751 mmHg 96%
    03:00 -13°C° 0 mm 1 mps 751 mmHg 96%
    04:00 -13°C° 0 mm 1 mps 751 mmHg 96%
    05:00 -13°C° 0 mm 1 mps 751 mmHg 96%
    06:00 -13°C° 0 mm 1 mps 751 mmHg 96%
    07:00 -15°C° 0 mm 2 mps 751 mmHg 96%
    08:00 -15°C° 0 mm 2 mps 751 mmHg 96%
    09:00 -14°C° 0 mm 2 mps 752 mmHg 95%
    10:00 -13°C° 0 mm 2 mps 752 mmHg 93%
    11:00 -13°C° 0 mm 2 mps 752 mmHg 92%
    12:00 -13°C° 0 mm 2 mps 752 mmHg 92%
    13:00 -10°C° 0 mm 1 mps 752 mmHg 92%
    14:00 -10°C° 0 mm 1 mps 752 mmHg 92%
    15:00 -11°C° 0 mm 1 mps 752 mmHg 93%
    16:00 -11°C° 0 mm 1 mps 752 mmHg 95%
    17:00 -12°C° 0 mm 1 mps 752 mmHg 96%
    18:00 -12°C° 0 mm 1 mps 752 mmHg 96%
    19:00 -12°C° 0 mm 1 mps 752 mmHg 96%
    20:00 -12°C° 0 mm 1 mps 752 mmHg 96%
    21:00 -12°C° 0 mm 1 mps 752 mmHg 96%
    22:00 -12°C° 0 mm 1 mps 752 mmHg 96%
    23:00 -12°C° 0 mm 1 mps 752 mmHg 97%

    20 December, Thursday

    Time Temperature Precipitation Wind Pressure Humidity
    00:00 -12°C° 0 mm 1 mps 752 mmHg 97%
    01:00 -12°C° 0 mm 1 mps 752 mmHg 96%
    02:00 -13°C° 0 mm 1 mps 752 mmHg 96%
    03:00 -13°C° 0 mm 1 mps 752 mmHg 96%
    04:00 -13°C° 0 mm 1 mps 752 mmHg 97%
    05:00 -13°C° 0 mm 1 mps 752 mmHg 97%
    06:00 -13°C° 0 mm 1 mps 752 mmHg 96%
    07:00 -13°C° 0 mm 1 mps 752 mmHg 96%
    08:00 -13°C° 0 mm 1 mps 752 mmHg 96%
    09:00 -12°C° 0 mm 1 mps 752 mmHg 95%
    10:00 -12°C° 0 mm 1 mps 752 mmHg 94%
    11:00 -11°C° 0 mm 1 mps 753 mmHg 92%
    12:00 -11°C° 0 mm 1 mps 752 mmHg 93%
    13:00 -12°C° 0 mm 1 mps 752 mmHg 93%
    14:00 -12°C° 0 mm 1 mps 752 mmHg 93%
    15:00 -12°C° 0 mm 1 mps 752 mmHg 94%
    16:00 -13°C° 0 mm 1 mps 752 mmHg 95%
    17:00 -14°C° 0 mm 1 mps 752 mmHg 96%
    18:00 -14°C° 0 mm 1 mps 752 mmHg 96%
    19:00 -14°C° 0 mm 1 mps 751 mmHg 97%
    20:00 -15°C° 0 mm 1 mps 751 mmHg 97%
    21:00 -15°C° 0 mm 1 mps 751 mmHg 97%
    22:00 -15°C° 0 mm 1 mps 751 mmHg 97%
    23:00 -15°C° 0 mm 1 mps 751 mmHg 97%

    21 December, Friday

    Time Temperature Precipitation Wind Pressure Humidity
    00:00 -15°C° 0 mm 1 mps 751 mmHg 97%
    01:00 -15°C° 0 mm 1 mps 751 mmHg 97%
    02:00 -15°C° 0 mm 1 mps 751 mmHg 97%
    03:00 -15°C° 0 mm 1 mps 751 mmHg 97%
    04:00 -15°C° 0 mm 1 mps 750 mmHg 97%
    05:00 -15°C° 0 mm 1 mps 750 mmHg 97%
    06:00 -15°C° 0 mm 1 mps 750 mmHg 97%
    07:00 -15°C° 0 mm 1 mps 750 mmHg 97%
    08:00 -15°C° 0 mm 1 mps 750 mmHg 97%
    09:00 -14°C° 0 mm 1 mps 750 mmHg 96%
    10:00 -14°C° 0 mm 1 mps 750 mmHg 95%
    11:00 -13°C° 0 mm 1 mps 750 mmHg 94%
    12:00 -13°C° 0 mm 1 mps 750 mmHg 94%
    13:00 -13°C° 0 mm 1 mps 750 mmHg 94%
    14:00 -12°C° 0 mm 1 mps 749 mmHg 94%
    15:00 -13°C° 0 mm 1 mps 749 mmHg 95%
    16:00 -14°C° 0 mm 1 mps 749 mmHg 96%
    17:00 -14°C° 0 mm 1 mps 749 mmHg 97%
    18:00 -14°C° 0 mm 1 mps 749 mmHg 97%
    19:00 -14°C° 0 mm 1 mps 749 mmHg 97%
    20:00 -14°C° 0 mm 1 mps 749 mmHg 97%
    21:00 -14°C° 0 mm 1 mps 749 mmHg 97%
    22:00 -14°C° 0 mm 1 mps 749 mmHg 97%
    23:00 -14°C° 0 mm 1 mps 749 mmHg 97%
    Show more